Grub im Wienerwald
Wetterdaten: aktuell Mittwoch, 20.01.2021 08:36
Datum Zeit Temp. A. Feuchte A. Luftdruck Regen Wind Richtung Richtung Sonnenschein UV Solar Taupunkt Windchill Windben
20.01.2021 08:36 -1,6 C 95 % 1014,2 hPa 0,0 l/m 0,0 km/h W-NW 289 0 min 0,0 UV-I 54 W/m -2,3 C -1,6 C 0,0 km/h
20.01.2021 08:33 -1,6 C 95 % 1014,2 hPa 0,0 l/m 0,0 km/h W-NW 289 0 min 0,0 UV-I 51 W/m -2,3 C -1,6 C 0,0 km/h
20.01.2021 08:30 -1,6 C 95 % 1014,2 hPa 0,0 l/m 0,0 km/h W-NW 289 0 min 0,0 UV-I 49 W/m -2,3 C -1,6 C 0,0 km/h
20.01.2021 08:27 -1,6 C 95 % 1014,2 hPa 0,0 l/m 0,0 km/h W-NW 289 0 min 0,0 UV-I 49 W/m -2,3 C -1,6 C 0,0 km/h
20.01.2021 08:24 -1,7 C 95 % 1014,3 hPa 0,0 l/m 0,1 km/h W-NW 289 0 min 0,0 UV-I 42 W/m -2,4 C -1,7 C 1,6 km/h
20.01.2021 08:21 -1,6 C 95 % 1014,2 hPa 0,0 l/m 0,0 km/h W-NW 289 0 min 0,0 UV-I 44 W/m -2,3 C -1,6 C 0,0 km/h
20.01.2021 08:18 -1,6 C 94 % 1014,2 hPa 0,0 l/m 0,0 km/h W-NW 289 0 min 0,0 UV-I 44 W/m -2,4 C -1,6 C 0,0 km/h
20.01.2021 08:15 -1,6 C 94 % 1014,1 hPa 0,0 l/m 0,0 km/h W-NW 289 0 min 0,0 UV-I 37 W/m -2,4 C -1,6 C 0,0 km/h
20.01.2021 08:12 -1,6 C 94 % 1014,1 hPa 0,0 l/m 0,0 km/h W-NW 289 0 min 0,0 UV-I 35 W/m -2,4 C -1,6 C 0,0 km/h
20.01.2021 08:09 -1,6 C 94 % 1014,0 hPa 0,0 l/m 0,0 km/h W-NW 289 0 min 0,0 UV-I 33 W/m -2,4 C -1,6 C 0,0 km/h
20.01.2021 08:06 -1,6 C 94 % 1014,0 hPa 0,0 l/m 0,0 km/h W-NW 289 0 min 0,0 UV-I 30 W/m -2,4 C -1,6 C 1,6 km/h
20.01.2021 08:03 -1,5 C 94 % 1013,9 hPa 0,0 l/m 0,0 km/h W-NW 289 0 min 0,0 UV-I 26 W/m -2,3 C -1,5 C 0,0 km/h
20.01.2021 08:00 -1,5 C 94 % 1013,8 hPa 0,0 l/m 0,0 km/h W-NW 289 0 min 0,0 UV-I 21 W/m -2,3 C -1,5 C 0,0 km/h
20.01.2021 07:57 -1,4 C 94 % 1013,7 hPa 0,0 l/m 0,0 km/h W-NW 289 0 min 0,0 UV-I 19 W/m -2,2 C -1,4 C 0,0 km/h
20.01.2021 07:54 -1,4 C 94 % 1013,8 hPa 0,0 l/m 0,0 km/h W-NW 289 3 min 0,0 UV-I 16 W/m -2,2 C -1,4 C 0,0 km/h
20.01.2021 07:51 -1,4 C 94 % 1013,7 hPa 0,0 l/m 0,0 km/h W-NW 289 3 min 0,0 UV-I 14 W/m -2,2 C -1,4 C 0,0 km/h
20.01.2021 07:48 -1,3 C 94 % 1013,7 hPa 0,0 l/m 0,0 km/h W-NW 289 0 min 0,0 UV-I 12 W/m -2,1 C -1,3 C 0,0 km/h
20.01.2021 07:45 -1,3 C 94 % 1013,6 hPa 0,0 l/m 0,0 km/h W-NW 289 0 min 0,0 UV-I 9 W/m -2,1 C -1,3 C 0,0 km/h
20.01.2021 07:42 -1,3 C 94 % 1013,6 hPa 0,0 l/m 0,0 km/h W-NW 289 0 min 0,0 UV-I 7 W/m -2,1 C -1,3 C 0,0 km/h
20.01.2021 07:39 -1,3 C 94 % 1013,6 hPa 0,0 l/m 0,0 km/h W-NW 289 0 min 0,0 UV-I 5 W/m -2,1 C -1,3 C 0,0 km/h
20.01.2021 07:36 -1,2 C 94 % 1013,5 hPa 0,0 l/m 0,0 km/h W-NW 289 0 min 0,0 UV-I 0 W/m -2,0 C -1,2 C 0,0 km/h
20.01.2021 07:33 -1,2 C 94 % 1013,5 hPa 0,0 l/m 0,0 km/h W-NW 289 0 min 0,0 UV-I 0 W/m -2,0 C -1,2 C 0,0 km/h
20.01.2021 07:30 -1,1 C 94 % 1013,5 hPa 0,0 l/m 0,2 km/h W-NW 289 0 min 0,0 UV-I 0 W/m -1,9 C -1,1 C 1,6 km/h
20.01.2021 07:27 -1,1 C 94 % 1013,4 hPa 0,0 l/m 0,0 km/h W-NW 289 0 min 0,0 UV-I 0 W/m -1,9 C -1,1 C 0,0 km/h
20.01.2021 07:24 -1,1 C 94 % 1013,4 hPa 0,0 l/m 0,1 km/h W-NW 289 0 min 0,0 UV-I 0 W/m -1,9 C -1,1 C 1,6 km/h
20.01.2021 07:21 -1,0 C 94 % 1013,4 hPa 0,0 l/m 0,0 km/h W-NW 289 0 min 0,0 UV-I 0 W/m -1,8 C -1,0 C 0,0 km/h
20.01.2021 07:18 -0,9 C 94 % 1013,4 hPa 0,0 l/m 0,0 km/h W-NW 289 0 min 0,0 UV-I 0 W/m -1,7 C -0,9 C 0,0 km/h
20.01.2021 07:15 -0,9 C 94 % 1013,4 hPa 0,0 l/m 0,0 km/h W-NW 289 0 min 0,0 UV-I 0 W/m -1,7 C -0,9 C 0,0 km/h
20.01.2021 07:12 -0,8 C 94 % 1013,4 hPa 0,0 l/m 0,0 km/h W-NW 289 0 min 0,0 UV-I 0 W/m -1,6 C -0,8 C 0,0 km/h
20.01.2021 07:09 -0,8 C 94 % 1013,3 hPa 0,0 l/m 0,0 km/h W-NW 289 0 min 0,0 UV-I 0 W/m -1,6 C -0,8 C 0,0 km/h
20.01.2021 07:06 -0,8 C 94 % 1013,4 hPa 0,0 l/m 0,4 km/h W-NW 289 0 min 0,0 UV-I 0 W/m -1,6 C -0,8 C 3,2 km/h
20.01.2021 07:03 -0,7 C 94 % 1013,4 hPa 0,0 l/m 0,1 km/h W-NW 289 0 min 0,0 UV-I 0 W/m -1,5 C -0,7 C 1,6 km/h
20.01.2021 07:00 -0,7 C 94 % 1013,4 hPa 0,0 l/m 0,0 km/h W-NW 289 0 min 0,0 UV-I 0 W/m -1,5 C -0,7 C 0,0 km/h
20.01.2021 06:57 -0,7 C 94 % 1013,4 hPa 0,0 l/m 0,1 km/h W-NW 289 0 min 0,0 UV-I 0 W/m -1,5 C -0,7 C 1,6 km/h
20.01.2021 06:54 -0,6 C 94 % 1013,4 hPa 0,0 l/m 0,0 km/h W-NW 289 0 min 0,0 UV-I 0 W/m -1,4 C -0,6 C 0,0 km/h
20.01.2021 06:51 -0,6 C 94 % 1013,4 hPa 0,0 l/m 0,0 km/h W-NW 289 0 min 0,0 UV-I 0 W/m -1,4 C -0,6 C 0,0 km/h
20.01.2021 06:48 -0,5 C 94 % 1013,4 hPa 0,0 l/m 0,0 km/h W-NW 289 0 min 0,0 UV-I 0 W/m -1,3 C -0,5 C 0,0 km/h
20.01.2021 06:45 -0,4 C 94 % 1013,4 hPa 0,0 l/m 0,0 km/h W-NW 289 0 min 0,0 UV-I 0 W/m -1,2 C -0,4 C 0,0 km/h
20.01.2021 06:42 -0,4 C 94 % 1013,4 hPa 0,0 l/m 0,0 km/h W-NW 289 0 min 0,0 UV-I 0 W/m -1,2 C -0,4 C 0,0 km/h
20.01.2021 06:39 -0,3 C 94 % 1013,3 hPa 0,0 l/m 0,0 km/h W-NW 289 0 min 0,0 UV-I 0 W/m -1,1 C -0,3 C 0,0 km/h
20.01.2021 06:36 -0,3 C 93 % 1013,3 hPa 0,0 l/m 0,0 km/h W-NW 289 0 min 0,0 UV-I 0 W/m -1,3 C -0,3 C 0,0 km/h
20.01.2021 06:33 -0,2 C 93 % 1013,3 hPa 0,0 l/m 0,0 km/h W-NW 289 0 min 0,0 UV-I 0 W/m -1,2 C -0,2 C 0,0 km/h
20.01.2021 06:30 -0,2 C 93 % 1013,2 hPa 0,0 l/m 0,0 km/h W-NW 289 0 min 0,0 UV-I 0 W/m -1,2 C -0,2 C 0,0 km/h
20.01.2021 06:27 -0,1 C 94 % 1013,2 hPa 0,0 l/m 0,0 km/h W-NW 289 0 min 0,0 UV-I 0 W/m -0,9 C -0,1 C 0,0 km/h
20.01.2021 06:24 0,0 C 94 % 1013,2 hPa 0,0 l/m 0,0 km/h W-NW 289 0 min 0,0 UV-I 0 W/m -0,8 C 0,0 C 0,0 km/h
20.01.2021 06:21 0,1 C 94 % 1013,2 hPa 0,0 l/m 0,0 km/h W-NW 289 0 min 0,0 UV-I 0 W/m -0,7 C 0,1 C 0,0 km/h
20.01.2021 06:18 0,2 C 94 % 1013,3 hPa 0,0 l/m 0,0 km/h W-NW 289 0 min 0,0 UV-I 0 W/m -0,6 C 0,2 C 0,0 km/h
20.01.2021 06:15 0,2 C 93 % 1013,2 hPa 0,0 l/m 0,8 km/h W-NW 289 0 min 0,0 UV-I 0 W/m -0,8 C 0,2 C 3,2 km/h
20.01.2021 06:12 0,3 C 94 % 1013,3 hPa 0,0 l/m 0,0 km/h W-NW 289 0 min 0,0 UV-I 0 W/m -0,5 C 0,3 C 0,0 km/h
20.01.2021 06:09 0,3 C 93 % 1013,2 hPa 0,0 l/m 0,0 km/h W-NW 289 0 min 0,0 UV-I 0 W/m -0,7 C 0,3 C 0,0 km/h
20.01.2021 06:06 0,4 C 94 % 1013,2 hPa 0,0 l/m 0,0 km/h W-NW 289 0 min 0,0 UV-I 0 W/m -0,5 C 0,4 C 0,0 km/h
20.01.2021 06:03 0,6 C 94 % 1013,2 hPa 0,0 l/m 0,0 km/h W-NW 289 0 min 0,0 UV-I 0 W/m -0,3 C 0,6 C 0,0 km/h
20.01.2021 06:00 0,6 C 94 % 1013,2 hPa 0,0 l/m 0,0 km/h W-NW 289 0 min 0,0 UV-I 0 W/m -0,3 C 0,6 C 0,0 km/h
20.01.2021 05:57 0,7 C 94 % 1013,2 hPa 0,0 l/m 0,0 km/h W-NW 289 0 min 0,0 UV-I 0 W/m -0,2 C 0,7 C 0,0 km/h
20.01.2021 05:54 0,7 C 94 % 1013,1 hPa 0,0 l/m 0,0 km/h W-NW 289 0 min 0,0 UV-I 0 W/m -0,2 C 0,7 C 0,0 km/h
20.01.2021 05:51 0,8 C 94 % 1013,2 hPa 0,0 l/m 0,0 km/h W-NW 289 0 min 0,0 UV-I 0 W/m -0,1 C 0,8 C 0,0 km/h
20.01.2021 05:48 0,8 C 94 % 1013,2 hPa 0,0 l/m 0,0 km/h W-NW 289 0 min 0,0 UV-I 0 W/m -0,1 C 0,8 C 0,0 km/h
20.01.2021 05:45 0,8 C 94 % 1013,2 hPa 0,0 l/m 0,4 km/h W-NW 289 0 min 0,0 UV-I 0 W/m -0,1 C 0,8 C 1,6 km/h
20.01.2021 05:42 0,9 C 94 % 1013,2 hPa 0,0 l/m 0,4 km/h W-NW 289 0 min 0,0 UV-I 0 W/m 0,0 C 0,9 C 3,2 km/h
20.01.2021 05:39 0,9 C 94 % 1013,1 hPa 0,0 l/m 0,0 km/h W-NW 289 0 min 0,0 UV-I 0 W/m 0,0 C 0,9 C 0,0 km/h
20.01.2021 05:36 0,9 C 94 % 1013,1 hPa 0,0 l/m 0,9 km/h W-NW 289 0 min 0,0 UV-I 0 W/m 0,0 C 0,9 C 3,2 km/h
20.01.2021 05:33 1,0 C 100 % 1013,1 hPa 0,0 l/m 1,0 km/h W-NW 289 0 min 0,0 UV-I 0 W/m 1,0 C 1,0 C 3,2 km/h
20.01.2021 05:30 1,1 C 94 % 1013,1 hPa 0,0 l/m 3,5 km/h W-NW 289 0 min 0,0 UV-I 0 W/m 0,2 C 1,1 C 4,8 km/h
20.01.2021 05:27 1,1 C 94 % 1013,1 hPa 0,0 l/m 2,7 km/h W-NW 289 0 min 0,0 UV-I 0 W/m 0,2 C 1,1 C 6,4 km/h
20.01.2021 05:24 1,1 C 94 % 1013,1 hPa 0,0 l/m 4,2 km/h W-NW 289 0 min 0,0 UV-I 0 W/m 0,2 C 1,1 C 6,4 km/h
20.01.2021 05:21 1,1 C 94 % 1013,1 hPa 0,0 l/m 4,5 km/h W-NW 289 0 min 0,0 UV-I 0 W/m 0,2 C 1,1 C 8,0 km/h
20.01.2021 05:18 1,2 C 93 % 1013,1 hPa 0,0 l/m 3,2 km/h W-NW 286 0 min 0,0 UV-I 0 W/m 0,2 C 1,2 C 8,0 km/h
20.01.2021 05:15 1,2 C 93 % 1013,1 hPa 0,0 l/m 2,5 km/h W-NW 286 0 min 0,0 UV-I 0 W/m 0,2 C 1,2 C 4,8 km/h
20.01.2021 05:12 1,3 C 94 % 1013,1 hPa 0,0 l/m 2,0 km/h W-NW 286 0 min 0,0 UV-I 0 W/m 0,4 C 1,3 C 4,8 km/h
20.01.2021 05:09 1,3 C 93 % 1013,1 hPa 0,0 l/m 2,3 km/h W-NW 286 0 min 0,0 UV-I 0 W/m 0,3 C 1,3 C 4,8 km/h
20.01.2021 05:06 1,3 C 93 % 1013,1 hPa 0,0 l/m 0,4 km/h W-NW 286 0 min 0,0 UV-I 0 W/m 0,3 C 1,3 C 3,2 km/h
20.01.2021 05:03 1,4 C 93 % 1013,1 hPa 0,0 l/m 0,4 km/h W-NW 286 0 min 0,0 UV-I 0 W/m 0,4 C 1,4 C 1,6 km/h
20.01.2021 05:00 1,4 C 93 % 1013,2 hPa 0,0 l/m 1,3 km/h W-NW 286 0 min 0,0 UV-I 0 W/m 0,4 C 1,4 C 3,2 km/h
20.01.2021 04:57 1,5 C 93 % 1013,2 hPa 0,0 l/m 0,2 km/h W-NW 286 0 min 0,0 UV-I 0 W/m 0,5 C 1,5 C 1,6 km/h
20.01.2021 04:54 1,6 C 93 % 1013,2 hPa 0,0 l/m 2,1 km/h W-NW 286 0 min 0,0 UV-I 0 W/m 0,6 C 1,6 C 3,2 km/h
20.01.2021 04:51 1,6 C 93 % 1013,2 hPa 0,0 l/m 1,5 km/h W-NW 286 0 min 0,0 UV-I 0 W/m 0,6 C 1,6 C 3,2 km/h
20.01.2021 04:48 1,7 C 93 % 1013,2 hPa 0,0 l/m 0,9 km/h W-NW 286 0 min 0,0 UV-I 0 W/m 0,7 C 1,7 C 3,2 km/h
20.01.2021 04:45 1,7 C 93 % 1013,2 hPa 0,0 l/m 0,8 km/h W-NW 286 0 min 0,0 UV-I 0 W/m 0,7 C 1,7 C 3,2 km/h
20.01.2021 04:42 1,7 C 93 % 1013,2 hPa 0,0 l/m 0,8 km/h W-NW 286 0 min 0,0 UV-I 0 W/m 0,7 C 1,7 C 3,2 km/h
20.01.2021 04:39 1,8 C 93 % 1013,2 hPa 0,0 l/m 1,9 km/h W-NW 286 0 min 0,0 UV-I 0 W/m 0,8 C 1,8 C 3,2 km/h
20.01.2021 04:36 1,8 C 93 % 1013,2 hPa 0,0 l/m 2,7 km/h W-NW 286 0 min 0,0 UV-I 0 W/m 0,8 C 1,8 C 4,8 km/h
20.01.2021 04:33 1,9 C 93 % 1013,3 hPa 0,0 l/m 0,8 km/h W-NW 286 0 min 0,0 UV-I 0 W/m 0,9 C 1,9 C 3,2 km/h
20.01.2021 04:30 2,0 C 93 % 1013,3 hPa 0,0 l/m 1,6 km/h W-NW 286 0 min 0,0 UV-I 0 W/m 1,0 C 2,0 C 3,2 km/h
20.01.2021 04:27 2,1 C 93 % 1013,3 hPa 0,0 l/m 3,0 km/h W-NW 286 0 min 0,0 UV-I 0 W/m 1,1 C 2,1 C 4,8 km/h
20.01.2021 04:24 2,1 C 93 % 1013,3 hPa 0,0 l/m 0,8 km/h W-NW 286 0 min 0,0 UV-I 0 W/m 1,1 C 2,1 C 3,2 km/h
20.01.2021 04:21 2,2 C 93 % 1013,3 hPa 0,0 l/m 1,3 km/h W-NW 286 0 min 0,0 UV-I 0 W/m 1,2 C 2,2 C 3,2 km/h
20.01.2021 04:18 2,3 C 93 % 1013,3 hPa 0,0 l/m 0,0 km/h W-NW 286 0 min 0,0 UV-I 0 W/m 1,3 C 2,3 C 0,0 km/h
20.01.2021 04:15 2,3 C 93 % 1013,3 hPa 0,0 l/m 0,0 km/h W-NW 286 0 min 0,0 UV-I 0 W/m 1,3 C 2,3 C 0,0 km/h
20.01.2021 04:12 2,4 C 93 % 1013,3 hPa 0,0 l/m 0,1 km/h W-NW 286 0 min 0,0 UV-I 0 W/m 1,4 C 2,4 C 1,6 km/h
20.01.2021 04:09 2,6 C 93 % 1013,4 hPa 0,0 l/m 0,0 km/h W-NW 286 0 min 0,0 UV-I 0 W/m 1,6 C 2,6 C 1,6 km/h
20.01.2021 04:06 2,6 C 93 % 1013,3 hPa 0,0 l/m 0,0 km/h W-NW 286 0 min 0,0 UV-I 0 W/m 1,6 C 2,6 C 0,0 km/h
_ Min-Zeit 08:24 13:18 18:57 - 11:57 - - - - - 12:42 21:30 12:15
Minimum _ -1,7 C 60 % 1012,7 hPa - 0,0 km/h - - - - - -2,4 C -4,7 C 0,0 km/h
_ Max-Zeit 19:18 05:33 09:24 09:57 23:51 - - 09:03 12:18 12:21 02:27 19:27 23:12
Maximum _ 5,1 C 100 % 1020,4 hPa 0,2 l/m 20,3 km/h
W-NW
- - 3 min 1,5 UV-I 297 W/m 3,4 C 5,1 C 43,5 km/h
W
Durchschnitt _ 2,8 C 81 % 1015,1 hPa #13,2 l/m 4,6 km/h W-NW - #6 min. 0,0 UV-I 30 W/m -0,2 C 1,7 C 10,2 km/h
Schulla EDV